Madison, SD

1:17 AM CST on November 18, 2019 (GMT -0600)
Madison Municipal

Weather History for KMDS - October, 2019

Change the Weather History Date:

Monday, October 14, 2019

  Actual Average Record
Temperature  
Mean Temperature 40 °F -  
Max Temperature 55 °F 60 °F 71 °F (2016)
Min Temperature 26 °F 36 °F 26 °F (2018)
Degree Days  
Heating Degree Days 24    
Moisture  
Dew Point 34 °F    
Average Humidity 85    
Maximum Humidity 100    
Minimum Humidity 51    
Precipitation  
Precipitation 0.00 in - - ()
Sea Level Pressure  
Sea Level Pressure 29.88 in    
Wind  
Wind Speed 7 mph ()    
Max Wind Speed 18 mph    
Max Gust Speed 25 mph    
Visibility 10.0 miles    
Events      
Averages and records for this station are not official NWS values.
T = Trace of Precipitation, MM = Missing Value Source: Averaged Metar Reports

Daily Weather History Graph

Daily Weather History Graph

Search for Another Location

Airport or City:

Astronomy

Oct. 14, 2019 Rise Set
Actual Time 7:41 AM CDT 6:46 PM CDT
Civil Twilight 7:12 AM CDT 7:15 PM CDT
Nautical Twilight 6:38 AM CDT 7:48 PM CDT
Astronomical Twilight 6:05 AM CDT 8:22 PM CDT
Moon 7:36 PM CDT (10/14) 8:13 AM CDT (10/14)
Length of Visible Light 12h 03m
Length of Day
11h 05m
Full, 99% of the Moon is Illuminated
Oct 14
Full
Oct 21
Last Quarter
Oct 27
New
Nov 4
First Quarter
Nov 12
Full

Hourly Weather History & Observations

Time (CDT) Temp. Windchill Dew Point Humidity Pressure Visibility Wind Dir Wind Speed Gust Speed Precip Events Conditions
12:00 AM 32.0 °F - 32.0 °F 100% 29.97 in 10.0 mi Calm Calm - N/A   Clear
12:15 AM 30.2 °F 26.7 °F 30.2 °F 100% 29.97 in 10.0 mi SW 3.5 mph - N/A   Clear
12:35 AM 30.2 °F 26.7 °F 30.2 °F 100% 29.97 in 10.0 mi SW 3.5 mph - N/A   Clear
12:40 AM 30.2 °F 26.7 °F 30.2 °F 100% 29.97 in 10.0 mi SSW 3.5 mph - N/A   Clear
12:55 AM 30.2 °F 26.7 °F 30.2 °F 100% 29.97 in 10.0 mi SSW 3.5 mph - N/A   Clear
1:15 AM 28.4 °F 23.3 °F 28.4 °F 100% 29.98 in 10.0 mi SSW 4.6 mph - N/A   Clear
1:20 AM 28.4 °F 23.3 °F 28.4 °F 100% 29.98 in 10.0 mi SSW 4.6 mph - N/A   Clear
1:35 AM 28.4 °F 23.3 °F 28.4 °F 100% 29.98 in 10.0 mi SSW 4.6 mph - N/A   Clear
1:40 AM 28.4 °F 23.3 °F 28.4 °F 100% 29.98 in 10.0 mi SSW 4.6 mph - N/A   Clear
1:55 AM 28.4 °F 24.6 °F 28.4 °F 100% 29.98 in 10.0 mi SSW 3.5 mph - N/A   Clear
2:00 AM 28.4 °F 23.3 °F 28.4 °F 100% 29.98 in 10.0 mi SW 4.6 mph - N/A   Clear
2:15 AM 28.4 °F 23.3 °F 28.4 °F 100% 29.98 in 10.0 mi SW 4.6 mph - N/A   Clear
2:35 AM 28.4 °F 24.6 °F 28.4 °F 100% 29.99 in 10.0 mi WSW 3.5 mph - N/A   Clear
2:40 AM 28.4 °F 23.3 °F 28.4 °F 100% 29.99 in 10.0 mi SW 4.6 mph - N/A   Clear
2:55 AM 28.4 °F 23.3 °F 28.4 °F 100% 29.99 in 10.0 mi WSW 4.6 mph - N/A   Clear
3:00 AM 28.4 °F 22.2 °F 28.4 °F 100% 29.99 in 10.0 mi WSW 5.8 mph - N/A   Clear
3:15 AM 28.4 °F 23.3 °F 28.4 °F 100% 29.99 in 10.0 mi WSW 4.6 mph - N/A   Clear
3:20 AM 28.4 °F 22.2 °F 28.4 °F 100% 29.99 in 10.0 mi WSW 5.8 mph - N/A   Clear
3:35 AM 28.4 °F 21.2 °F 28.4 °F 100% 29.98 in 10.0 mi SW 6.9 mph - N/A   Clear
3:40 AM 28.4 °F 22.2 °F 28.4 °F 100% 29.98 in 10.0 mi SW 5.8 mph - N/A   Clear
3:55 AM 28.4 °F 22.2 °F 28.4 °F 100% 29.99 in 10.0 mi SW 5.8 mph - N/A   Clear
4:00 AM 28.4 °F 22.2 °F 28.4 °F 100% 29.99 in 10.0 mi SW 5.8 mph - N/A   Clear
4:15 AM 28.4 °F 24.6 °F 28.4 °F 100% 29.99 in 10.0 mi SW 3.5 mph - N/A   Clear
4:35 AM 28.4 °F 23.3 °F 28.4 °F 100% 29.99 in 10.0 mi SW 4.6 mph - N/A   Clear
4:55 AM 28.4 °F 23.3 °F 28.4 °F 100% 29.99 in 10.0 mi SW 4.6 mph - N/A   Clear
5:15 AM 28.4 °F 23.3 °F 28.4 °F 100% 29.99 in 10.0 mi SW 4.6 mph - N/A   Clear
5:20 AM 28.4 °F - 28.4 °F 100% 29.98 in 10.0 mi Calm Calm - N/A   Clear
5:35 AM 28.4 °F 24.6 °F 28.4 °F 100% 29.98 in 10.0 mi SSW 3.5 mph - N/A   Clear
5:55 AM 28.4 °F 24.6 °F 28.4 °F 100% 29.97 in 10.0 mi SSW 3.5 mph - N/A   Clear
6:15 AM 28.4 °F 24.6 °F 28.4 °F 100% 29.97 in 10.0 mi South 3.5 mph - N/A   Clear
6:20 AM 28.4 °F 24.6 °F 28.4 °F 100% 29.97 in 10.0 mi SSW 3.5 mph - N/A   Clear
6:35 AM 28.4 °F 24.6 °F 28.4 °F 100% 29.97 in 10.0 mi South 3.5 mph - N/A   Clear
6:40 AM 28.4 °F 24.6 °F 28.4 °F 100% 29.97 in 10.0 mi South 3.5 mph - N/A   Clear
6:55 AM 26.6 °F - 26.6 °F 100% 29.97 in 10.0 mi Calm Calm - N/A   Clear
7:15 AM 26.6 °F 21.2 °F 26.6 °F 100% 29.96 in 10.0 mi SSE 4.6 mph - N/A   Clear
7:35 AM 26.6 °F 21.2 °F 26.6 °F 100% 29.96 in 10.0 mi South 4.6 mph - N/A   Clear
7:40 AM 26.6 °F 20.0 °F 26.6 °F 100% 29.96 in 10.0 mi South 5.8 mph - N/A   Clear
7:55 AM 28.4 °F 23.3 °F 28.4 °F 100% 29.96 in 10.0 mi South 4.6 mph - N/A   Clear
8:35 AM 30.2 °F 23.4 °F 30.2 °F 100% 29.97 in 10.0 mi South 6.9 mph - N/A   Clear
8:40 AM 30.2 °F 23.4 °F 30.2 °F 100% 29.97 in 10.0 mi South 6.9 mph - N/A   Clear
8:55 AM 32.0 °F 24.8 °F 32.0 °F 100% 29.97 in 10.0 mi South 8.1 mph - N/A   Clear
9:00 AM 32.0 °F 25.6 °F 32.0 °F 100% 29.97 in 10.0 mi South 6.9 mph - N/A   Clear
9:15 AM 32.0 °F 26.4 °F 32.0 °F 100% 29.97 in 10.0 mi South 5.8 mph - N/A   Clear
9:20 AM 32.0 °F 25.6 °F 32.0 °F 100% 29.97 in 10.0 mi South 6.9 mph - N/A   Clear
9:35 AM 33.8 °F 27.7 °F 33.8 °F 100% 29.96 in 10.0 mi South 6.9 mph - N/A   Clear
9:40 AM 33.8 °F 27.0 °F 33.8 °F 100% 29.96 in 10.0 mi South 8.1 mph - N/A   Clear
9:55 AM 35.6 °F 29.2 °F 35.6 °F 100% 29.96 in 10.0 mi South 8.1 mph - N/A   Clear
10:15 AM 37.4 °F 31.4 °F 37.4 °F 100% 29.95 in 10.0 mi South 8.1 mph - N/A   Clear
10:20 AM 37.4 °F 30.8 °F 37.4 °F 100% 29.95 in 10.0 mi South 9.2 mph - N/A   Clear
10:35 AM 39.2 °F 33.6 °F 37.4 °F 93% 29.95 in 10.0 mi South 8.1 mph - N/A   Clear
10:40 AM 39.2 °F 34.2 °F 39.2 °F 100% 29.95 in 10.0 mi South 6.9 mph - N/A   Clear
10:55 AM 41.0 °F 35.8 °F 37.4 °F 87% 29.95 in 10.0 mi SSE 8.1 mph - N/A   Clear
11:15 AM 42.8 °F 36.2 °F 37.4 °F 81% 29.94 in 10.0 mi South 12.7 mph - N/A   Clear
11:20 AM 44.6 °F 39.7 °F 37.4 °F 76% 29.94 in 10.0 mi SSE 9.2 mph - N/A   Clear
11:35 AM 44.6 °F 38.8 °F 37.4 °F 76% 29.93 in 10.0 mi South 11.5 mph 16.1 mph N/A   Clear
11:40 AM 44.6 °F 39.2 °F 37.4 °F 76% 29.93 in 10.0 mi SSE 10.4 mph - N/A   Clear
12:15 PM 46.4 °F 41.1 °F 37.4 °F 71% 29.91 in 10.0 mi SSE 11.5 mph - N/A   Clear
12:20 PM 46.4 °F 40.4 °F 37.4 °F 71% 29.91 in 10.0 mi SSE 13.8 mph 17.3 mph N/A   Clear
12:35 PM 46.4 °F 40.4 °F 37.4 °F 71% 29.91 in 10.0 mi SSE 13.8 mph 17.3 mph N/A   Clear
12:45 PM 48.2 °F - 37.4 °F 66% 29.90 in 10.0 mi SE 16.1 mph - N/A   Clear
12:55 PM 48.2 °F - 37.4 °F 66% 29.89 in 10.0 mi SE 15.0 mph 18.4 mph N/A   Clear
1:15 PM 48.2 °F - 35.6 °F 62% 29.88 in 10.0 mi SE 13.8 mph - N/A   Clear
1:20 PM 48.2 °F - 35.6 °F 62% 29.87 in 10.0 mi SSE 16.1 mph - N/A   Clear
1:35 PM 50.0 °F - 35.6 °F 58% 29.85 in 10.0 mi SE 16.1 mph 20.7 mph N/A   Clear
1:40 PM 50.0 °F - 35.6 °F 58% 29.85 in 10.0 mi SE 13.8 mph 19.6 mph N/A   Clear
1:55 PM 50.0 °F - 35.6 °F 58% 29.84 in 10.0 mi SE 16.1 mph - N/A   Clear
2:15 PM 50.0 °F - 35.6 °F 58% 29.83 in 10.0 mi SE 16.1 mph 21.9 mph N/A   Clear
2:35 PM 50.0 °F - 35.6 °F 58% 29.82 in 10.0 mi SE 17.3 mph 25.3 mph N/A   Clear
3:00 PM 51.8 °F - 35.6 °F 54% 29.80 in 10.0 mi SE 18.4 mph 23.0 mph N/A   Clear
3:15 PM 53.6 °F - 35.6 °F 51% 29.80 in 10.0 mi SE 16.1 mph 24.2 mph N/A   Clear
3:20 PM 53.6 °F - 35.6 °F 51% 29.80 in 10.0 mi SE 18.4 mph 24.2 mph N/A   Clear
3:35 PM 53.6 °F - 35.6 °F 51% 29.78 in 10.0 mi SE 17.3 mph 24.2 mph N/A   Clear
3:55 PM 53.6 °F - 37.4 °F 54% 29.79 in 10.0 mi SE 15.0 mph 20.7 mph N/A   Clear
4:00 PM 53.6 °F - 37.4 °F 54% 29.79 in 10.0 mi SSE 13.8 mph 20.7 mph N/A   Clear
4:15 PM 53.6 °F - 37.4 °F 54% 29.79 in 10.0 mi SE 13.8 mph 18.4 mph N/A   Clear
4:20 PM 53.6 °F - 37.4 °F 54% 29.78 in 10.0 mi SE 12.7 mph 18.4 mph N/A   Clear
4:35 PM 55.4 °F - 37.4 °F 51% 29.77 in 10.0 mi SE 13.8 mph - N/A   Clear
4:55 PM 55.4 °F - 37.4 °F 51% 29.77 in 10.0 mi SE 15.0 mph 18.4 mph N/A   Clear
5:00 PM 55.4 °F - 37.4 °F 51% 29.77 in 10.0 mi SE 11.5 mph 18.4 mph N/A   Clear
5:15 PM 55.4 °F - 37.4 °F 51% 29.77 in 10.0 mi SE 12.7 mph - N/A   Clear
5:20 PM 55.4 °F - 37.4 °F 51% 29.77 in 10.0 mi SE 12.7 mph - N/A   Clear
5:35 PM 55.4 °F - 37.4 °F 51% 29.77 in 10.0 mi SE 11.5 mph 16.1 mph N/A   Clear
5:40 PM 55.4 °F - 39.2 °F 54% 29.77 in 10.0 mi ESE 9.2 mph 16.1 mph N/A   Clear
6:00 PM 55.4 °F - 39.2 °F 54% 29.77 in 10.0 mi ESE 8.1 mph - N/A   Clear
6:15 PM 53.6 °F - 39.2 °F 58% 29.76 in 10.0 mi East 8.1 mph - N/A   Clear
6:35 PM 50.0 °F - 41.0 °F 71% 29.76 in 10.0 mi East 9.2 mph - N/A   Clear
6:55 PM 48.2 °F - 39.2 °F 71% 29.76 in 10.0 mi East 10.4 mph - N/A   Clear
7:15 PM 48.2 °F - 39.2 °F 71% 29.76 in 10.0 mi East 10.4 mph - N/A   Clear
7:35 PM 46.4 °F 41.5 °F 39.2 °F 76% 29.76 in 10.0 mi East 10.4 mph - N/A   Clear
7:40 PM 46.4 °F 41.5 °F 41.0 °F 81% 29.76 in 10.0 mi East 10.4 mph - N/A   Clear
7:55 PM 46.4 °F 41.1 °F 41.0 °F 81% 29.76 in 10.0 mi East 11.5 mph - N/A   Clear
8:15 PM 44.6 °F 39.2 °F 41.0 °F 87% 29.76 in 10.0 mi East 10.4 mph - N/A   Clear
8:35 PM 44.6 °F 38.8 °F 41.0 °F 87% 29.75 in 10.0 mi East 11.5 mph - N/A   Clear
8:40 PM 44.6 °F 39.2 °F 41.0 °F 87% 29.75 in 10.0 mi East 10.4 mph - N/A   Clear
8:55 PM 44.6 °F 39.2 °F 41.0 °F 87% 29.75 in 10.0 mi East 10.4 mph - N/A   Clear
9:00 PM 44.6 °F 39.2 °F 41.0 °F 87% 29.75 in 10.0 mi East 10.4 mph - N/A   Clear
9:15 PM 44.6 °F 39.2 °F 41.0 °F 87% 29.74 in 10.0 mi East 10.4 mph - N/A   Clear
9:20 PM 44.6 °F 38.8 °F 41.0 °F 87% 29.74 in 10.0 mi East 11.5 mph - N/A   Clear
9:35 PM 42.8 °F 38.0 °F 41.0 °F 93% 29.74 in 10.0 mi East 8.1 mph - N/A   Clear
9:40 PM 42.8 °F 37.5 °F 41.0 °F 93% 29.74 in 10.0 mi East 9.2 mph - N/A   Clear
9:55 PM 42.8 °F 37.0 °F 41.0 °F 93% 29.74 in 10.0 mi East 10.4 mph - N/A   Clear
10:00 PM 41.0 °F 35.2 °F 41.0 °F 100% 29.74 in 10.0 mi East 9.2 mph - N/A   Clear
10:15 PM 41.0 °F 35.8 °F 41.0 °F 100% 29.73 in 10.0 mi East 8.1 mph - N/A   Clear
10:35 PM 41.0 °F 36.4 °F 41.0 °F 100% 29.74 in 10.0 mi ENE 6.9 mph - N/A   Clear
10:55 PM 41.0 °F 37.1 °F 39.2 °F 93% 29.75 in 10.0 mi NNE 5.8 mph - N/A   Clear
11:15 PM 39.2 °F 34.2 °F 39.2 °F 100% 29.75 in 10.0 mi NNE 6.9 mph - N/A   Clear
11:35 PM 39.2 °F 33.0 °F 39.2 °F 100% 29.76 in 10.0 mi North 9.2 mph - N/A   Clear
11:40 PM 39.2 °F 33.6 °F 39.2 °F 100% 29.77 in 10.0 mi North 8.1 mph - N/A   Clear
11:55 PM 37.4 °F 31.4 °F 37.4 °F 100% 29.77 in 10.0 mi North 8.1 mph - N/A   Clear